owner,sensor,date,latitude,longitude,vertical_datum,sea_water_practical_salinity,qcFlag 
TABS,ioos:station:wmo:42046:1,2013-06-01T00:00:00Z,27.8903,-94.0367,2.0,0.01,11111222 
TABS,ioos:station:wmo:42046:1,2013-06-01T00:30:00Z,27.8903,-94.0367,2.0,0.01,11111222 
TABS,ioos:station:wmo:42046:1,2013-06-01T01:00:00Z,27.8903,-94.0367,2.0,0.01,11111222 
TABS,ioos:station:wmo:42046:1,2013-06-01T01:30:00Z,27.8903,-94.0367,2.0,0.01,11111222 
TABS,ioos:station:wmo:42046:1,2013-06-01T02:00:00Z,27.8903,-94.0367,2.0,0.01,11111222 
TABS,ioos:station:wmo:42046:1,2013-06-01T02:30:00Z,27.8903,-94.0367,2.0,0.01,11111222 
TABS,ioos:station:wmo:42046:1,2013-06-01T03:00:00Z,27.8903,-94.0367,2.0,0.36,11111222 
TABS,ioos:station:wmo:42046:1,2013-06-01T03:30:00Z,27.8903,-94.0367,2.0,0.37,11111222 
TABS,ioos:station:wmo:42046:1,2013-06-01T04:00:00Z,27.8903,-94.0367,2.0,0.19,11111222 
TABS,ioos:station:wmo:42046:1,2013-06-01T04:30:00Z,27.8903,-94.0367,2.0,0.16,11111222 
TABS,ioos:station:wmo:42046:1,2013-06-01T05:00:00Z,27.8903,-94.0367,2.0,0.15,11111222 
TABS,ioos:station:wmo:42046:1,2013-06-01T05:30:00Z,27.8903,-94.0367,2.0,0.14,11111222 
TABS,ioos:station:wmo:42046:1,2013-06-01T06:00:00Z,27.8903,-94.0367,2.0,0.14,11111222 
TABS,ioos:station:wmo:42046:1,2013-06-01T06:30:00Z,27.8903,-94.0367,2.0,0.13,11111222 
TABS,ioos:station:wmo:42046:1,2013-06-01T07:00:00Z,27.8903,-94.0367,2.0,0.12,11111222 
TABS,ioos:station:wmo:42046:1,2013-06-01T07:30:00Z,27.8903,-94.0367,2.0,0.11,11111222 
TABS,ioos:station:wmo:42046:1,2013-06-01T08:00:00Z,27.8903,-94.0367,2.0,0.11,11111222 
TABS,ioos:station:wmo:42046:1,2013-06-01T08:30:00Z,27.8903,-94.0367,2.0,0.1,11111222 
TABS,ioos:station:wmo:42046:1,2013-06-01T09:00:00Z,27.8903,-94.0367,2.0,0.09,11111222 
TABS,ioos:station:wmo:42046:1,2013-06-01T09:30:00Z,27.8903,-94.0367,2.0,0.08,11111222 
TABS,ioos:station:wmo:42046:1,2013-06-01T10:00:00Z,27.8903,-94.0367,2.0,0.08,11111222 
TABS,ioos:station:wmo:42046:1,2013-06-01T10:30:00Z,27.8903,-94.0367,2.0,0.07,11111222 
TABS,ioos:station:wmo:42046:1,2013-06-01T11:00:00Z,27.8903,-94.0367,2.0,0.07,11111222 
TABS,ioos:station:wmo:42046:1,2013-06-01T11:30:00Z,27.8903,-94.0367,2.0,0.07,11111222 
TABS,ioos:station:wmo:42046:1,2013-06-01T12:00:00Z,27.8903,-94.0367,2.0,0.06,11111222 
TABS,ioos:station:wmo:42046:1,2013-06-01T12:30:00Z,27.8903,-94.0367,2.0,0.06,11111222 
TABS,ioos:station:wmo:42046:1,2013-06-01T13:00:00Z,27.8903,-94.0367,2.0,0.06,11111222 
TABS,ioos:station:wmo:42046:1,2013-06-01T13:30:00Z,27.8903,-94.0367,2.0,0.05,11111222 
TABS,ioos:station:wmo:42046:1,2013-06-01T14:00:00Z,27.8903,-94.0367,2.0,0.05,11111222 
TABS,ioos:station:wmo:42046:1,2013-06-01T14:30:00Z,27.8903,-94.0367,2.0,0.05,11111222 
TABS,ioos:station:wmo:42046:1,2013-06-01T15:00:00Z,27.8903,-94.0367,2.0,0.04,11111222 
TABS,ioos:station:wmo:42046:1,2013-06-01T15:30:00Z,27.8903,-94.0367,2.0,0.04,11111222 
TABS,ioos:station:wmo:42046:1,2013-06-01T16:00:00Z,27.8903,-94.0367,2.0,0.04,11111222 
TABS,ioos:station:wmo:42046:1,2013-06-01T16:30:00Z,27.8903,-94.0367,2.0,0.04,11111222 
TABS,ioos:station:wmo:42046:1,2013-06-01T17:00:00Z,27.8903,-94.0367,2.0,0.04,11111222 
TABS,ioos:station:wmo:42046:1,2013-06-01T17:30:00Z,27.8903,-94.0367,2.0,0.04,11111222 
TABS,ioos:station:wmo:42046:1,2013-06-01T18:00:00Z,27.8903,-94.0367,2.0,0.04,11111222 
TABS,ioos:station:wmo:42046:1,2013-06-01T18:30:00Z,27.8903,-94.0367,2.0,0.04,11111222 
TABS,ioos:station:wmo:42046:1,2013-06-01T19:00:00Z,27.8903,-94.0367,2.0,0.04,11111222 
TABS,ioos:station:wmo:42046:1,2013-06-01T19:30:00Z,27.8903,-94.0367,2.0,0.04,11111222 
TABS,ioos:station:wmo:42046:1,2013-06-01T20:00:00Z,27.8903,-94.0367,2.0,0.04,11111222 
TABS,ioos:station:wmo:42046:1,2013-06-01T20:30:00Z,27.8903,-94.0367,2.0,0.04,11111222 
TABS,ioos:station:wmo:42046:1,2013-06-01T21:00:00Z,27.8903,-94.0367,2.0,0.04,11111222 
TABS,ioos:station:wmo:42046:1,2013-06-01T21:30:00Z,27.8903,-94.0367,2.0,0.04,11111222 
TABS,ioos:station:wmo:42046:1,2013-06-01T22:00:00Z,27.8903,-94.0367,2.0,0.04,11111222 
TABS,ioos:station:wmo:42046:1,2013-06-01T22:30:00Z,27.8903,-94.0367,2.0,0.04,11111222 
TABS,ioos:station:wmo:42046:1,2013-06-01T23:00:00Z,27.8903,-94.0367,2.0,0.04,11111222 
TABS,ioos:station:wmo:42046:1,2013-06-01T23:30:00Z,27.8903,-94.0367,2.0,0.04,11111222 
TABS,ioos:station:wmo:42046:1,2013-06-02T00:00:00Z,27.8903,-94.0367,2.0,0.04,11111222 
TABS,ioos:station:wmo:42046:1,2013-06-02T00:30:00Z,27.8903,-94.0367,2.0,0.04,11111222 
TABS,ioos:station:wmo:42046:1,2013-06-02T01:00:00Z,27.8903,-94.0367,2.0,0.04,11111222 
TABS,ioos:station:wmo:42046:1,2013-06-02T01:30:00Z,27.8903,-94.0367,2.0,0.04,11111222 
TABS,ioos:station:wmo:42046:1,2013-06-02T02:00:00Z,27.8903,-94.0367,2.0,0.04,11111222 
TABS,ioos:station:wmo:42046:1,2013-06-02T02:30:00Z,27.8903,-94.0367,2.0,0.04,11111222 
TABS,ioos:station:wmo:42046:1,2013-06-02T03:00:00Z,27.8903,-94.0367,2.0,0.04,11111222 
TABS,ioos:station:wmo:42046:1,2013-06-02T03:30:00Z,27.8903,-94.0367,2.0,0.04,11111222 
TABS,ioos:station:wmo:42046:1,2013-06-02T04:00:00Z,27.8903,-94.0367,2.0,33.9,11111222 
TABS,ioos:station:wmo:42046:1,2013-06-02T04:30:00Z,27.8903,-94.0367,2.0,33.9,11111222 
TABS,ioos:station:wmo:42046:1,2013-06-02T05:00:00Z,27.8903,-94.0367,2.0,33.89,11111222 
TABS,ioos:station:wmo:42046:1,2013-06-02T05:30:00Z,27.8903,-94.0367,2.0,33.87,11111222 
TABS,ioos:station:wmo:42046:1,2013-06-02T06:00:00Z,27.8903,-94.0367,2.0,33.88,11111222 
TABS,ioos:station:wmo:42046:1,2013-06-02T06:30:00Z,27.8903,-94.0367,2.0,33.92,11111222 
TABS,ioos:station:wmo:42046:1,2013-06-02T07:00:00Z,27.8903,-94.0367,2.0,33.97,11111222 
TABS,ioos:station:wmo:42046:1,2013-06-02T07:30:00Z,27.8903,-94.0367,2.0,33.97,11111222 
TABS,ioos:station:wmo:42046:1,2013-06-02T08:00:00Z,27.8903,-94.0367,2.0,33.93,11111222 
TABS,ioos:station:wmo:42046:1,2013-06-02T08:30:00Z,27.8903,-94.0367,2.0,33.9,11111222 
TABS,ioos:station:wmo:42046:1,2013-06-02T09:00:00Z,27.8903,-94.0367,2.0,33.89,11111222 
TABS,ioos:station:wmo:42046:1,2013-06-02T09:30:00Z,27.8903,-94.0367,2.0,33.86,11111222 
TABS,ioos:station:wmo:42046:1,2013-06-02T10:00:00Z,27.8903,-94.0367,2.0,33.85,11111222 
TABS,ioos:station:wmo:42046:1,2013-06-02T10:30:00Z,27.8903,-94.0367,2.0,33.84,11111222 
TABS,ioos:station:wmo:42046:1,2013-06-02T11:00:00Z,27.8903,-94.0367,2.0,33.86,11111222 
TABS,ioos:station:wmo:42046:1,2013-06-02T11:30:00Z,27.8903,-94.0367,2.0,33.9,11111222 
TABS,ioos:station:wmo:42046:1,2013-06-02T12:00:00Z,27.8903,-94.0367,2.0,33.96,11111222 
TABS,ioos:station:wmo:42046:1,2013-06-02T12:30:00Z,27.8903,-94.0367,2.0,33.97,11111222 
TABS,ioos:station:wmo:42046:1,2013-06-02T13:00:00Z,27.8903,-94.0367,2.0,33.95,11111222 
TABS,ioos:station:wmo:42046:1,2013-06-02T13:30:00Z,27.8903,-94.0367,2.0,33.92,11111222 
TABS,ioos:station:wmo:42046:1,2013-06-02T14:00:00Z,27.8903,-94.0367,2.0,33.91,11111222 
TABS,ioos:station:wmo:42046:1,2013-06-02T14:30:00Z,27.8903,-94.0367,2.0,33.98,11111222 
TABS,ioos:station:wmo:42046:1,2013-06-02T15:00:00Z,27.8903,-94.0367,2.0,34.06,11111222 
TABS,ioos:station:wmo:42046:1,2013-06-02T15:30:00Z,27.8903,-94.0367,2.0,34.04,11111222 
TABS,ioos:station:wmo:42046:1,2013-06-02T16:00:00Z,27.8903,-94.0367,2.0,34.04,11111222 
TABS,ioos:station:wmo:42046:1,2013-06-02T16:30:00Z,27.8903,-94.0367,2.0,34.18,11111222 
TABS,ioos:station:wmo:42046:1,2013-06-02T17:00:00Z,27.8903,-94.0367,2.0,34.04,11111222 
TABS,ioos:station:wmo:42046:1,2013-06-02T17:30:00Z,27.8903,-94.0367,2.0,34.03,11111222 
TABS,ioos:station:wmo:42046:1,2013-06-02T18:00:00Z,27.8903,-94.0367,2.0,34.1,11111222 
TABS,ioos:station:wmo:42046:1,2013-06-02T18:30:00Z,27.8903,-94.0367,2.0,34.11,11111222 
TABS,ioos:station:wmo:42046:1,2013-06-02T19:00:00Z,27.8903,-94.0367,2.0,34.11,11111222 
TABS,ioos:station:wmo:42046:1,2013-06-02T19:30:00Z,27.8903,-94.0367,2.0,34.15,11111222 
TABS,ioos:station:wmo:42046:1,2013-06-02T20:00:00Z,27.8903,-94.0367,2.0,34.14,11111222 
TABS,ioos:station:wmo:42046:1,2013-06-02T20:30:00Z,27.8903,-94.0367,2.0,34.14,11111222 
TABS,ioos:station:wmo:42046:1,2013-06-02T21:00:00Z,27.8903,-94.0367,2.0,34.12,11111222 
TABS,ioos:station:wmo:42046:1,2013-06-02T21:30:00Z,27.8903,-94.0367,2.0,34.08,11111222 
TABS,ioos:station:wmo:42046:1,2013-06-02T22:00:00Z,27.8903,-94.0367,2.0,34.08,11111222 
TABS,ioos:station:wmo:42046:1,2013-06-02T22:30:00Z,27.8903,-94.0367,2.0,33.98,11111222 
TABS,ioos:station:wmo:42046:1,2013-06-02T23:00:00Z,27.8903,-94.0367,2.0,33.96,11111222 
TABS,ioos:station:wmo:42046:1,2013-06-02T23:30:00Z,27.8903,-94.0367,2.0,33.94,11111222 
TABS,ioos:station:wmo:42046:1,2013-06-03T00:00:00Z,27.8903,-94.0367,2.0,33.92,11111222 
TABS,ioos:station:wmo:42046:1,2013-06-03T00:30:00Z,27.8903,-94.0367,2.0,33.91,11111222 
TABS,ioos:station:wmo:42046:1,2013-06-03T01:00:00Z,27.8903,-94.0367,2.0,33.89,11111222 
TABS,ioos:station:wmo:42046:1,2013-06-03T01:30:00Z,27.8903,-94.0367,2.0,33.88,11111222 
TABS,ioos:station:wmo:42046:1,2013-06-03T02:00:00Z,27.8903,-94.0367,2.0,33.86,11111222 
TABS,ioos:station:wmo:42046:1,2013-06-03T02:30:00Z,27.8903,-94.0367,2.0,33.85,11111222 
TABS,ioos:station:wmo:42046:1,2013-06-03T03:00:00Z,27.8903,-94.0367,2.0,33.85,11111222 
TABS,ioos:station:wmo:42046:1,2013-06-03T03:30:00Z,27.8903,-94.0367,2.0,33.84,11111222 
TABS,ioos:station:wmo:42046:1,2013-06-03T04:00:00Z,27.8903,-94.0367,2.0,33.84,11111222 
TABS,ioos:station:wmo:42046:1,2013-06-03T04:30:00Z,27.8903,-94.0367,2.0,33.84,11111222 
TABS,ioos:station:wmo:42046:1,2013-06-03T05:00:00Z,27.8903,-94.0367,2.0,33.84,11111222 
TABS,ioos:station:wmo:42046:1,2013-06-03T05:30:00Z,27.8903,-94.0367,2.0,33.85,11111222 
TABS,ioos:station:wmo:42046:1,2013-06-03T06:00:00Z,27.8903,-94.0367,2.0,33.84,11111222 
TABS,ioos:station:wmo:42046:1,2013-06-03T06:30:00Z,27.8903,-94.0367,2.0,33.84,11111222 
TABS,ioos:station:wmo:42046:1,2013-06-03T07:00:00Z,27.8903,-94.0367,2.0,33.85,11111222 
TABS,ioos:station:wmo:42046:1,2013-06-03T07:30:00Z,27.8903,-94.0367,2.0,33.86,11111222 
TABS,ioos:station:wmo:42046:1,2013-06-03T08:00:00Z,27.8903,-94.0367,2.0,33.87,11111222 
TABS,ioos:station:wmo:42046:1,2013-06-03T08:30:00Z,27.8903,-94.0367,2.0,33.89,11111222 
TABS,ioos:station:wmo:42046:1,2013-06-03T09:00:00Z,27.8903,-94.0367,2.0,33.92,11111222 
TABS,ioos:station:wmo:42046:1,2013-06-03T09:30:00Z,27.8903,-94.0367,2.0,33.92,11111222 
TABS,ioos:station:wmo:42046:1,2013-06-03T10:00:00Z,27.8903,-94.0367,2.0,33.93,11111222 
TABS,ioos:station:wmo:42046:1,2013-06-03T10:30:00Z,27.8903,-94.0367,2.0,33.93,11111222 
TABS,ioos:station:wmo:42046:1,2013-06-03T11:00:00Z,27.8903,-94.0367,2.0,33.94,11111222 
TABS,ioos:station:wmo:42046:1,2013-06-03T11:30:00Z,27.8903,-94.0367,2.0,33.95,11111222 
TABS,ioos:station:wmo:42046:1,2013-06-03T12:00:00Z,27.8903,-94.0367,2.0,33.95,11111222 
TABS,ioos:station:wmo:42046:1,2013-06-03T12:30:00Z,27.8903,-94.0367,2.0,33.97,11111222 
TABS,ioos:station:wmo:42046:1,2013-06-03T13:00:00Z,27.8903,-94.0367,2.0,33.97,11111222 
TABS,ioos:station:wmo:42046:1,2013-06-03T13:30:00Z,27.8903,-94.0367,2.0,33.94,11111222 
TABS,ioos:station:wmo:42046:1,2013-06-03T14:00:00Z,27.8903,-94.0367,2.0,33.95,11111222 
TABS,ioos:station:wmo:42046:1,2013-06-03T14:30:00Z,27.8903,-94.0367,2.0,33.97,11111222 
TABS,ioos:station:wmo:42046:1,2013-06-03T15:00:00Z,27.8903,-94.0367,2.0,33.98,11111222 
TABS,ioos:station:wmo:42046:1,2013-06-03T15:30:00Z,27.8903,-94.0367,2.0,34.0,11111222 
TABS,ioos:station:wmo:42046:1,2013-06-03T16:00:00Z,27.8903,-94.0367,2.0,34.0,11111222 
TABS,ioos:station:wmo:42046:1,2013-06-03T16:30:00Z,27.8903,-94.0367,2.0,34.0,11111222 
TABS,ioos:station:wmo:42046:1,2013-06-03T17:00:00Z,27.8903,-94.0367,2.0,34.02,11111222 
TABS,ioos:station:wmo:42046:1,2013-06-03T17:30:00Z,27.8903,-94.0367,2.0,34.0,11111222 
TABS,ioos:station:wmo:42046:1,2013-06-03T18:00:00Z,27.8903,-94.0367,2.0,34.0,11111222 
TABS,ioos:station:wmo:42046:1,2013-06-03T18:30:00Z,27.8903,-94.0367,2.0,34.0,11111222 
TABS,ioos:station:wmo:42046:1,2013-06-03T19:00:00Z,27.8903,-94.0367,2.0,33.98,11111222 
TABS,ioos:station:wmo:42046:1,2013-06-03T19:30:00Z,27.8903,-94.0367,2.0,33.97,11111222 
TABS,ioos:station:wmo:42046:1,2013-06-03T20:00:00Z,27.8903,-94.0367,2.0,33.96,11111222 
TABS,ioos:station:wmo:42046:1,2013-06-03T20:30:00Z,27.8903,-94.0367,2.0,33.94,11111222 
TABS,ioos:station:wmo:42046:1,2013-06-03T21:00:00Z,27.8903,-94.0367,2.0,33.92,11111222 
TABS,ioos:station:wmo:42046:1,2013-06-03T21:30:00Z,27.8903,-94.0367,2.0,33.91,11111222 
TABS,ioos:station:wmo:42046:1,2013-06-03T22:00:00Z,27.8903,-94.0367,2.0,33.92,11111222 
TABS,ioos:station:wmo:42046:1,2013-06-03T22:30:00Z,27.8903,-94.0367,2.0,33.9,11111222 
TABS,ioos:station:wmo:42046:1,2013-06-03T23:00:00Z,27.8903,-94.0367,2.0,33.88,11111222 
TABS,ioos:station:wmo:42046:1,2013-06-03T23:30:00Z,27.8903,-94.0367,2.0,33.87,11111222 
TABS,ioos:station:wmo:42046:1,2013-06-04T00:00:00Z,27.8903,-94.0367,2.0,33.84,11111222 
TABS,ioos:station:wmo:42046:1,2013-06-04T00:30:00Z,27.8903,-94.0367,2.0,33.8,11111222 
TABS,ioos:station:wmo:42046:1,2013-06-04T01:00:00Z,27.8903,-94.0367,2.0,33.79,11111222 
TABS,ioos:station:wmo:42046:1,2013-06-04T01:30:00Z,27.8903,-94.0367,2.0,33.79,11111222 
TABS,ioos:station:wmo:42046:1,2013-06-04T02:00:00Z,27.8903,-94.0367,2.0,33.79,11111222 
TABS,ioos:station:wmo:42046:1,2013-06-04T02:30:00Z,27.8903,-94.0367,2.0,33.79,11111222 
TABS,ioos:station:wmo:42046:1,2013-06-04T03:00:00Z,27.8903,-94.0367,2.0,33.78,11111222 
TABS,ioos:station:wmo:42046:1,2013-06-04T03:30:00Z,27.8903,-94.0367,2.0,33.77,11111222 
TABS,ioos:station:wmo:42046:1,2013-06-04T04:00:00Z,27.8903,-94.0367,2.0,33.77,11111222 
TABS,ioos:station:wmo:42046:1,2013-06-04T04:30:00Z,27.8903,-94.0367,2.0,33.77,11111222 
TABS,ioos:station:wmo:42046:1,2013-06-04T05:00:00Z,27.8903,-94.0367,2.0,33.77,11111222 
TABS,ioos:station:wmo:42046:1,2013-06-04T05:30:00Z,27.8903,-94.0367,2.0,33.77,11111222 
TABS,ioos:station:wmo:42046:1,2013-06-04T06:00:00Z,27.8903,-94.0367,2.0,33.78,11111222 
TABS,ioos:station:wmo:42046:1,2013-06-04T06:30:00Z,27.8903,-94.0367,2.0,33.79,11111222 
TABS,ioos:station:wmo:42046:1,2013-06-04T07:00:00Z,27.8903,-94.0367,2.0,33.79,11111222 
TABS,ioos:station:wmo:42046:1,2013-06-04T07:30:00Z,27.8903,-94.0367,2.0,33.78,11111222 
TABS,ioos:station:wmo:42046:1,2013-06-04T08:00:00Z,27.8903,-94.0367,2.0,33.79,11111222 
TABS,ioos:station:wmo:42046:1,2013-06-04T08:30:00Z,27.8903,-94.0367,2.0,33.79,11111222 
TABS,ioos:station:wmo:42046:1,2013-06-04T09:00:00Z,27.8903,-94.0367,2.0,33.79,11111222 
TABS,ioos:station:wmo:42046:1,2013-06-04T09:30:00Z,27.8903,-94.0367,2.0,33.8,11111222 
TABS,ioos:station:wmo:42046:1,2013-06-04T10:00:00Z,27.8903,-94.0367,2.0,33.8,11111222 
TABS,ioos:station:wmo:42046:1,2013-06-04T10:30:00Z,27.8903,-94.0367,2.0,33.8,11111222 
TABS,ioos:station:wmo:42046:1,2013-06-04T11:00:00Z,27.8903,-94.0367,2.0,33.81,11111222 
TABS,ioos:station:wmo:42046:1,2013-06-04T11:30:00Z,27.8903,-94.0367,2.0,33.81,11111222 
TABS,ioos:station:wmo:42046:1,2013-06-04T12:00:00Z,27.8903,-94.0367,2.0,33.82,11111222 
TABS,ioos:station:wmo:42046:1,2013-06-04T12:30:00Z,27.8903,-94.0367,2.0,33.84,11111222 
TABS,ioos:station:wmo:42046:1,2013-06-04T13:00:00Z,27.8903,-94.0367,2.0,33.82,11111222 
TABS,ioos:station:wmo:42046:1,2013-06-04T13:30:00Z,27.8903,-94.0367,2.0,33.82,11111222 
TABS,ioos:station:wmo:42046:1,2013-06-04T14:00:00Z,27.8903,-94.0367,2.0,33.84,11111222 
TABS,ioos:station:wmo:42046:1,2013-06-04T14:30:00Z,27.8903,-94.0367,2.0,33.86,11111222 
TABS,ioos:station:wmo:42046:1,2013-06-04T15:00:00Z,27.8903,-94.0367,2.0,33.87,11111222 
TABS,ioos:station:wmo:42046:1,2013-06-04T15:30:00Z,27.8903,-94.0367,2.0,33.89,11111222 
TABS,ioos:station:wmo:42046:1,2013-06-04T16:00:00Z,27.8903,-94.0367,2.0,33.89,11111222 
TABS,ioos:station:wmo:42046:1,2013-06-04T16:30:00Z,27.8903,-94.0367,2.0,33.93,11111222 
TABS,ioos:station:wmo:42046:1,2013-06-04T17:00:00Z,27.8903,-94.0367,2.0,33.96,11111222 
TABS,ioos:station:wmo:42046:1,2013-06-04T17:30:00Z,27.8903,-94.0367,2.0,33.96,11111222 
TABS,ioos:station:wmo:42046:1,2013-06-04T18:00:00Z,27.8903,-94.0367,2.0,33.95,11111222 
TABS,ioos:station:wmo:42046:1,2013-06-04T18:30:00Z,27.8903,-94.0367,2.0,33.92,11111222 
TABS,ioos:station:wmo:42046:1,2013-06-04T19:00:00Z,27.8903,-94.0367,2.0,33.93,11111222 
TABS,ioos:station:wmo:42046:1,2013-06-04T19:30:00Z,27.8903,-94.0367,2.0,33.92,11111222 
TABS,ioos:station:wmo:42046:1,2013-06-04T20:00:00Z,27.8903,-94.0367,2.0,33.92,11111222 
TABS,ioos:station:wmo:42046:1,2013-06-04T20:30:00Z,27.8903,-94.0367,2.0,33.91,11111222 
TABS,ioos:station:wmo:42046:1,2013-06-04T21:00:00Z,27.8903,-94.0367,2.0,33.9,11111222 
TABS,ioos:station:wmo:42046:1,2013-06-04T21:30:00Z,27.8903,-94.0367,2.0,33.88,11111222 
TABS,ioos:station:wmo:42046:1,2013-06-04T22:00:00Z,27.8903,-94.0367,2.0,33.89,11111222 
TABS,ioos:station:wmo:42046:1,2013-06-04T22:30:00Z,27.8903,-94.0367,2.0,33.86,11111222 
TABS,ioos:station:wmo:42046:1,2013-06-04T23:00:00Z,27.8903,-94.0367,2.0,33.85,11111222 
TABS,ioos:station:wmo:42046:1,2013-06-04T23:30:00Z,27.8903,-94.0367,2.0,33.85,11111222 
TABS,ioos:station:wmo:42046:1,2013-06-05T00:00:00Z,27.8903,-94.0367,2.0,33.84,11111222 
TABS,ioos:station:wmo:42046:1,2013-06-05T00:30:00Z,27.8903,-94.0367,2.0,33.84,11111222 
TABS,ioos:station:wmo:42046:1,2013-06-05T01:00:00Z,27.8903,-94.0367,2.0,33.83,11111222 
TABS,ioos:station:wmo:42046:1,2013-06-05T01:30:00Z,27.8903,-94.0367,2.0,33.82,11111222 
TABS,ioos:station:wmo:42046:1,2013-06-05T02:00:00Z,27.8903,-94.0367,2.0,33.8,11111222 
TABS,ioos:station:wmo:42046:1,2013-06-05T02:30:00Z,27.8903,-94.0367,2.0,33.79,11111222 
TABS,ioos:station:wmo:42046:1,2013-06-05T03:00:00Z,27.8903,-94.0367,2.0,33.76,11111222 
TABS,ioos:station:wmo:42046:1,2013-06-05T03:30:00Z,27.8903,-94.0367,2.0,33.74,11111222 
TABS,ioos:station:wmo:42046:1,2013-06-05T04:00:00Z,27.8903,-94.0367,2.0,33.73,11111222 
TABS,ioos:station:wmo:42046:1,2013-06-05T04:30:00Z,27.8903,-94.0367,2.0,33.73,11111222 
TABS,ioos:station:wmo:42046:1,2013-06-05T05:00:00Z,27.8903,-94.0367,2.0,33.73,11111222 
TABS,ioos:station:wmo:42046:1,2013-06-05T05:30:00Z,27.8903,-94.0367,2.0,33.72,11111222 
TABS,ioos:station:wmo:42046:1,2013-06-05T06:00:00Z,27.8903,-94.0367,2.0,33.72,11111222 
TABS,ioos:station:wmo:42046:1,2013-06-05T06:30:00Z,27.8903,-94.0367,2.0,33.72,11111222 
TABS,ioos:station:wmo:42046:1,2013-06-05T07:00:00Z,27.8903,-94.0367,2.0,33.72,11111222 
TABS,ioos:station:wmo:42046:1,2013-06-05T07:30:00Z,27.8903,-94.0367,2.0,33.72,11111222 
TABS,ioos:station:wmo:42046:1,2013-06-05T08:00:00Z,27.8903,-94.0367,2.0,33.72,11111222 
TABS,ioos:station:wmo:42046:1,2013-06-05T08:30:00Z,27.8903,-94.0367,2.0,33.72,11111222 
TABS,ioos:station:wmo:42046:1,2013-06-05T09:00:00Z,27.8903,-94.0367,2.0,33.72,11111222 
TABS,ioos:station:wmo:42046:1,2013-06-05T09:30:00Z,27.8903,-94.0367,2.0,33.72,11111222 
TABS,ioos:station:wmo:42046:1,2013-06-05T10:00:00Z,27.8903,-94.0367,2.0,33.72,11111222 
TABS,ioos:station:wmo:42046:1,2013-06-05T10:30:00Z,27.8903,-94.0367,2.0,33.72,11111222 
TABS,ioos:station:wmo:42046:1,2013-06-05T11:00:00Z,27.8903,-94.0367,2.0,33.72,11111222 
TABS,ioos:station:wmo:42046:1,2013-06-05T11:30:00Z,27.8903,-94.0367,2.0,33.73,11111222 
TABS,ioos:station:wmo:42046:1,2013-06-05T12:00:00Z,27.8903,-94.0367,2.0,33.72,11111222 
TABS,ioos:station:wmo:42046:1,2013-06-05T12:30:00Z,27.8903,-94.0367,2.0,33.74,11111222 
TABS,ioos:station:wmo:42046:1,2013-06-05T13:00:00Z,27.8903,-94.0367,2.0,33.75,11111222 
TABS,ioos:station:wmo:42046:1,2013-06-05T13:30:00Z,27.8903,-94.0367,2.0,33.74,11111222 
TABS,ioos:station:wmo:42046:1,2013-06-05T14:00:00Z,27.8903,-94.0367,2.0,33.75,11111222 
TABS,ioos:station:wmo:42046:1,2013-06-05T14:30:00Z,27.8903,-94.0367,2.0,33.76,11111222 
TABS,ioos:station:wmo:42046:1,2013-06-05T15:00:00Z,27.8903,-94.0367,2.0,33.75,11111222 
TABS,ioos:station:wmo:42046:1,2013-06-05T15:30:00Z,27.8903,-94.0367,2.0,33.76,11111222 
TABS,ioos:station:wmo:42046:1,2013-06-05T16:00:00Z,27.8903,-94.0367,2.0,33.78,11111222 
TABS,ioos:station:wmo:42046:1,2013-06-05T16:30:00Z,27.8903,-94.0367,2.0,33.8,11111222 
TABS,ioos:station:wmo:42046:1,2013-06-05T17:00:00Z,27.8903,-94.0367,2.0,33.82,11111222 
TABS,ioos:station:wmo:42046:1,2013-06-05T17:30:00Z,27.8903,-94.0367,2.0,33.8,11111222 
TABS,ioos:station:wmo:42046:1,2013-06-05T18:00:00Z,27.8903,-94.0367,2.0,33.84,11111222 
TABS,ioos:station:wmo:42046:1,2013-06-05T18:30:00Z,27.8903,-94.0367,2.0,33.86,11111222 
TABS,ioos:station:wmo:42046:1,2013-06-05T19:00:00Z,27.8903,-94.0367,2.0,33.86,11111222 
TABS,ioos:station:wmo:42046:1,2013-06-05T19:30:00Z,27.8903,-94.0367,2.0,33.87,11111222 
TABS,ioos:station:wmo:42046:1,2013-06-05T20:00:00Z,27.8903,-94.0367,2.0,33.87,11111222 
TABS,ioos:station:wmo:42046:1,2013-06-05T20:30:00Z,27.8903,-94.0367,2.0,33.87,11111222 
TABS,ioos:station:wmo:42046:1,2013-06-05T21:00:00Z,27.8903,-94.0367,2.0,33.87,11111222 
TABS,ioos:station:wmo:42046:1,2013-06-05T21:30:00Z,27.8903,-94.0367,2.0,33.88,11111222 
TABS,ioos:station:wmo:42046:1,2013-06-05T22:00:00Z,27.8903,-94.0367,2.0,33.87,11111222 
TABS,ioos:station:wmo:42046:1,2013-06-05T22:30:00Z,27.8903,-94.0367,2.0,33.89,11111222 
TABS,ioos:station:wmo:42046:1,2013-06-05T23:00:00Z,27.8903,-94.0367,2.0,33.88,11111222 
TABS,ioos:station:wmo:42046:1,2013-06-05T23:30:00Z,27.8903,-94.0367,2.0,33.87,11111222 
TABS,ioos:station:wmo:42046:1,2013-06-06T00:00:00Z,27.8903,-94.0367,2.0,33.85,11111222 
TABS,ioos:station:wmo:42046:1,2013-06-06T00:30:00Z,27.8903,-94.0367,2.0,33.83,11111222 
TABS,ioos:station:wmo:42046:1,2013-06-06T01:00:00Z,27.8903,-94.0367,2.0,33.83,11111222 
TABS,ioos:station:wmo:42046:1,2013-06-06T01:30:00Z,27.8903,-94.0367,2.0,33.83,11111222 
TABS,ioos:station:wmo:42046:1,2013-06-06T02:00:00Z,27.8903,-94.0367,2.0,33.83,11111222 
TABS,ioos:station:wmo:42046:1,2013-06-06T02:30:00Z,27.8903,-94.0367,2.0,33.82,11111222 
TABS,ioos:station:wmo:42046:1,2013-06-06T03:00:00Z,27.8903,-94.0367,2.0,33.82,11111222 
TABS,ioos:station:wmo:42046:1,2013-06-06T03:30:00Z,27.8903,-94.0367,2.0,33.81,11111222 
TABS,ioos:station:wmo:42046:1,2013-06-06T04:00:00Z,27.8903,-94.0367,2.0,33.81,11111222 
TABS,ioos:station:wmo:42046:1,2013-06-06T04:30:00Z,27.8903,-94.0367,2.0,33.8,11111222 
TABS,ioos:station:wmo:42046:1,2013-06-06T05:00:00Z,27.8903,-94.0367,2.0,33.79,11111222 
TABS,ioos:station:wmo:42046:1,2013-06-06T05:30:00Z,27.8903,-94.0367,2.0,33.8,11111222 
TABS,ioos:station:wmo:42046:1,2013-06-06T06:00:00Z,27.8903,-94.0367,2.0,33.8,11111222 
TABS,ioos:station:wmo:42046:1,2013-06-06T06:30:00Z,27.8903,-94.0367,2.0,33.8,11111222 
TABS,ioos:station:wmo:42046:1,2013-06-06T07:00:00Z,27.8903,-94.0367,2.0,33.78,11111222 
TABS,ioos:station:wmo:42046:1,2013-06-06T07:30:00Z,27.8903,-94.0367,2.0,33.78,11111222 
TABS,ioos:station:wmo:42046:1,2013-06-06T08:00:00Z,27.8903,-94.0367,2.0,33.78,11111222 
TABS,ioos:station:wmo:42046:1,2013-06-06T08:30:00Z,27.8903,-94.0367,2.0,33.77,11111222 
TABS,ioos:station:wmo:42046:1,2013-06-06T09:00:00Z,27.8903,-94.0367,2.0,33.77,11111222 
TABS,ioos:station:wmo:42046:1,2013-06-06T09:30:00Z,27.8903,-94.0367,2.0,33.77,11111222 
TABS,ioos:station:wmo:42046:1,2013-06-06T10:00:00Z,27.8903,-94.0367,2.0,33.77,11111222 
TABS,ioos:station:wmo:42046:1,2013-06-06T10:30:00Z,27.8903,-94.0367,2.0,33.76,11111222 
TABS,ioos:station:wmo:42046:1,2013-06-06T11:00:00Z,27.8903,-94.0367,2.0,33.76,11111222 
TABS,ioos:station:wmo:42046:1,2013-06-06T11:30:00Z,27.8903,-94.0367,2.0,33.78,11111222 
TABS,ioos:station:wmo:42046:1,2013-06-06T12:00:00Z,27.8903,-94.0367,2.0,33.79,11111222 
TABS,ioos:station:wmo:42046:1,2013-06-06T12:30:00Z,27.8903,-94.0367,2.0,33.8,11111222 
TABS,ioos:station:wmo:42046:1,2013-06-06T13:00:00Z,27.8903,-94.0367,2.0,33.82,11111222 
TABS,ioos:station:wmo:42046:1,2013-06-06T13:30:00Z,27.8903,-94.0367,2.0,33.84,11111222 
TABS,ioos:station:wmo:42046:1,2013-06-06T14:00:00Z,27.8903,-94.0367,2.0,33.86,11111222 
TABS,ioos:station:wmo:42046:1,2013-06-06T14:30:00Z,27.8903,-94.0367,2.0,33.87,11111222 
TABS,ioos:station:wmo:42046:1,2013-06-06T15:00:00Z,27.8903,-94.0367,2.0,33.89,11111222 
TABS,ioos:station:wmo:42046:1,2013-06-06T15:30:00Z,27.8903,-94.0367,2.0,33.91,11111222 